Orbital Elements at Epoch 2459000.5 (2020-May-31.0) TDB
Reference: JPL 30 (heliocentric ecliptic J2000)
Element | Value | Uncertainty (1-sigma) | Units |
e | .1640012092568858 | 3.9364e-08 | |
a | 2.773666666302889 | 1.4728e-08 | au |
q | 2.3187819789537 | 1.0718e-07 | au |
i | 8.448088979306945 | 4.2555e-06 | deg |
node | 223.4625932759174 | 2.8199e-05 | deg |
peri | 186.9932539349984 | 3.1051e-05 | deg |
M | 78.99577852247495 | 1.2453e-05 | deg |
tp | 2458630.261813105795 (2019-May-26.76181311) | 5.7749e-05 | TDB |
period | 1687.251518687077 4.62 | 1.3439e-05 3.679e-08 | d yr |
n | .2133647509057402 | 1.6994e-09 | deg/d |
Q | 3.228551353652079 | 1.7143e-08 | au |
|
| | Orbit Determination Parameters
Additional Information
|